Simultaneous Nadir Overpasses (SNOs) Predictions

Prediction of SNOs between METOP-B and TERRA Satellite Orbit:

Table of predicted SNOs for the next 14.0 days since TLE Epoch: 10/18/2014
Index Date (METOP-B) Time (METOP-B) Lat,Lon (METOP-B) SZA (METOP-B ) Date (TERRA) Time (TERRA) Lat,Lon (TERRA) SZA (TERRA ) Distance(km) Time Diff (sec)
1 10/19/2014 07:24:18 -81.30, -63.94 85.60 10/19/2014 07:24:31 -81.30, -64.13 85.62 3.28 13
2 10/19/2014 08:14:59 81.31, 103.54 94.44 10/19/2014 08:13:57 81.30, 103.61 94.41 1.21 62
3 10/22/2014 02:58:37 -81.30, 2.47 84.59 10/22/2014 02:58:44 -81.31, 2.59 84.57 2.22 7
4 10/22/2014 03:49:17 81.31, 170.32 95.50 10/22/2014 03:48:10 81.31, 170.29 95.46 0.65 67
5 10/24/2014 21:42:29 81.18,-104.01 95.69 10/24/2014 21:43:43 80.99,-103.64 95.63 22.01 74
6 10/24/2014 22:32:55 -81.30, 68.84 83.61 10/24/2014 22:32:57 -81.29, 68.74 83.62 1.87 2
7 10/24/2014 23:23:35 81.31,-123.34 96.47 10/24/2014 23:22:22 81.32,-123.21 96.46 2.30 73
8 10/27/2014 17:16:35 81.29, -32.67 97.28 10/27/2014 17:17:43 81.29, -32.56 97.32 1.84 68
9 10/27/2014 18:07:13 -81.31, 135.57 82.60 10/27/2014 18:07:09 -81.31, 135.45 82.62 1.90 4
10 10/30/2014 12:50:53 81.30, 33.99 98.24 10/30/2014 12:51:55 81.29, 33.94 98.26 0.99 62




NCC Satellite Simultaneous Nadir Overpasses (SNOs) Prediction Service
